• In Germany
  • List of Countries
  • For 7 days
  • Water Temperature
  • Satellite Maps
  • Weather Map
  • Weather Widgets
  • user-avatar
    Login

    Hourly Weather Boma

    Today, 20 September, Thursday

    Time Temperature Precipitation Wind Pressure Humidity
    00:00 +20°C° 0.8 mm 0 mps 700 mmHg 96%
    01:00 +20°C° 0 mm 0 mps 700 mmHg 96%
    02:00 +20°C° 0.1 mm 0 mps 700 mmHg 96%
    03:00 +20°C° 0.1 mm 0 mps 700 mmHg 96%
    04:00 +20°C° 0.1 mm 0 mps 700 mmHg 96%
    05:00 +20°C° 0 mm 0 mps 700 mmHg 95%
    06:00 +20°C° 0 mm 0 mps 700 mmHg 95%
    07:00 +21°C° 0 mm 0 mps 701 mmHg 94%
    08:00 +23°C° 0 mm 0 mps 701 mmHg 82%
    09:00 +28°C° 0 mm 1 mps 701 mmHg 71%
    10:00 +30°C° 0 mm 1 mps 701 mmHg 59%
    11:00 +32°C° 0 mm 1 mps 701 mmHg 54%
    12:00 +33°C° 0 mm 1 mps 700 mmHg 48%
    13:00 +34°C° 0 mm 1 mps 700 mmHg 43%
    14:00 +33°C° 0 mm 1 mps 700 mmHg 47%
    15:00 +33°C° 0 mm 1 mps 699 mmHg 50%
    16:00 +32°C° 0 mm 1 mps 698 mmHg 53%
    17:00 +30°C° 0 mm 1 mps 698 mmHg 60%
    18:00 +28°C° 0 mm 1 mps 698 mmHg 66%
    19:00 +24°C° 0 mm 0 mps 698 mmHg 73%
    20:00 +23°C° 0.6 mm 0 mps 699 mmHg 78%
    21:00 +23°C° 0.6 mm 0 mps 699 mmHg 84%
    22:00 +22°C° 0.6 mm 0 mps 699 mmHg 89%
    23:00 +21°C° 0.9 mm 0 mps 699 mmHg 91%

    Tomorrow, 21 September, Friday

    Time Temperature Precipitation Wind Pressure Humidity
    00:00 +21°C° 0.9 mm 0 mps 699 mmHg 93%
    01:00 +22°C° 0.9 mm 1 mps 699 mmHg 95%
    02:00 +22°C° 0.4 mm 1 mps 699 mmHg 96%
    03:00 +22°C° 0.4 mm 1 mps 699 mmHg 97%
    04:00 +22°C° 0.4 mm 1 mps 698 mmHg 97%
    05:00 +20°C° 0.1 mm 0 mps 699 mmHg 97%
    06:00 +20°C° 0.1 mm 0 mps 699 mmHg 96%
    07:00 +21°C° 0.1 mm 0 mps 699 mmHg 95%
    08:00 +23°C° 0.1 mm 0 mps 700 mmHg 86%
    09:00 +25°C° 0.1 mm 0 mps 700 mmHg 77%
    10:00 +27°C° 0.1 mm 0 mps 701 mmHg 67%
    11:00 +29°C° 0.3 mm 0 mps 701 mmHg 62%
    12:00 +32°C° 0.3 mm 1 mps 700 mmHg 56%
    13:00 +33°C° 0.3 mm 1 mps 700 mmHg 51%
    14:00 +32°C° 0.5 mm 1 mps 699 mmHg 58%
    15:00 +30°C° 0.5 mm 1 mps 698 mmHg 66%
    16:00 +29°C° 0.5 mm 1 mps 698 mmHg 74%
    17:00 +27°C° 1.3 mm 1 mps 698 mmHg 80%
    18:00 +24°C° 1.3 mm 0 mps 698 mmHg 86%
    19:00 +22°C° 1.3 mm 0 mps 698 mmHg 93%
    20:00 +22°C° 0 mm 0 mps 699 mmHg 94%
    21:00 +22°C° 0 mm 0 mps 699 mmHg 94%
    22:00 +21°C° 0 mm 0 mps 700 mmHg 95%
    23:00 +21°C° 0.2 mm 0 mps 699 mmHg 96%

    Day after tomorrow, 22 September, Saturday

    Time Temperature Precipitation Wind Pressure Humidity
    00:00 +21°C° 0.2 mm 0 mps 699 mmHg 97%
    01:00 +22°C° 0.2 mm 1 mps 699 mmHg 97%
    02:00 +22°C° 0.1 mm 1 mps 699 mmHg 98%
    03:00 +22°C° 0.1 mm 1 mps 699 mmHg 98%
    04:00 +22°C° 0.1 mm 1 mps 698 mmHg 99%
    05:00 +22°C° 0.3 mm 1 mps 699 mmHg 98%
    06:00 +22°C° 0.3 mm 1 mps 700 mmHg 98%
    07:00 +23°C° 0.3 mm 1 mps 700 mmHg 97%
    08:00 +24°C° 0 mm 1 mps 701 mmHg 92%
    09:00 +25°C° 0 mm 1 mps 701 mmHg 87%
    10:00 +26°C° 0 mm 1 mps 702 mmHg 82%
    11:00 +27°C° 0.2 mm 1 mps 701 mmHg 76%
    12:00 +29°C° 0.2 mm 1 mps 700 mmHg 70%
    13:00 +30°C° 0.2 mm 1 mps 700 mmHg 63%
    14:00 +30°C° 0.1 mm 1 mps 699 mmHg 63%
    15:00 +28°C° 0.1 mm 0 mps 699 mmHg 63%
    16:00 +28°C° 0.1 mm 0 mps 698 mmHg 63%
    17:00 +26°C° 0.2 mm 0 mps 698 mmHg 72%
    18:00 +24°C° 0.2 mm 0 mps 699 mmHg 80%
    19:00 +22°C° 0.2 mm 0 mps 699 mmHg 88%
    20:00 +22°C° 0.6 mm 0 mps 699 mmHg 91%
    21:00 +21°C° 0.6 mm 0 mps 700 mmHg 93%
    22:00 +21°C° 0.6 mm 0 mps 700 mmHg 96%
    23:00 +23°C° 0.3 mm 1 mps 700 mmHg 97%

    23 September, Sunday

    Time Temperature Precipitation Wind Pressure Humidity
    00:00 +22°C° 0.3 mm 1 mps 699 mmHg 98%
    01:00 +22°C° 0.3 mm 1 mps 699 mmHg 99%
    02:00 +22°C° 0.2 mm 1 mps 699 mmHg 99%
    03:00 +22°C° 0.2 mm 1 mps 699 mmHg 98%
    04:00 +22°C° 0.2 mm 1 mps 699 mmHg 98%
    05:00 +22°C° 0 mm 1 mps 699 mmHg 98%
    06:00 +23°C° 0 mm 1 mps 700 mmHg 97%
    07:00 +23°C° 0 mm 1 mps 700 mmHg 97%
    08:00 +24°C° 0 mm 1 mps 701 mmHg 90%
    09:00 +26°C° 0 mm 1 mps 701 mmHg 82%
    10:00 +27°C° 0 mm 1 mps 701 mmHg 75%
    11:00 +30°C° 0 mm 1 mps 701 mmHg 65%
    12:00 +31°C° 0 mm 0 mps 700 mmHg 55%
    13:00 +33°C° 0 mm 0 mps 700 mmHg 45%
    14:00 +32°C° 0 mm 0 mps 699 mmHg 46%
    15:00 +32°C° 0 mm 0 mps 699 mmHg 48%
    16:00 +33°C° 0 mm 1 mps 698 mmHg 50%
    17:00 +31°C° 0.3 mm 1 mps 699 mmHg 59%
    18:00 +28°C° 0.3 mm 1 mps 699 mmHg 69%
    19:00 +26°C° 0.3 mm 1 mps 699 mmHg 78%
    20:00 +25°C° 2 mm 1 mps 700 mmHg 83%
    21:00 +24°C° 2 mm 1 mps 700 mmHg 88%
    22:00 +23°C° 2 mm 1 mps 700 mmHg 93%
    23:00 +23°C° 0.2 mm 1 mps 700 mmHg 94%

    24 September, Monday

    Time Temperature Precipitation Wind Pressure Humidity
    00:00 +23°C° 0.2 mm 1 mps 700 mmHg 95%
    01:00 +23°C° 0.2 mm 1 mps 699 mmHg 95%
    02:00 +22°C° 0.4 mm 1 mps 699 mmHg 96%
    03:00 +22°C° 0.4 mm 1 mps 699 mmHg 97%
    04:00 +20°C° 0.4 mm 0 mps 699 mmHg 97%
    05:00 +20°C° 1 mm 0 mps 700 mmHg 97%
    06:00 +20°C° 1 mm 0 mps 700 mmHg 98%
    07:00 +20°C° 1 mm 0 mps 701 mmHg 98%
    08:00 +21°C° 1.8 mm 0 mps 701 mmHg 97%
    09:00 +21°C° 1.8 mm 0 mps 702 mmHg 97%
    10:00 +22°C° 1.8 mm 0 mps 702 mmHg 96%
    11:00 +23°C° 0.6 mm 0 mps 701 mmHg 92%
    12:00 +24°C° 0.6 mm 0 mps 701 mmHg 88%
    13:00 +24°C° 0.6 mm 0 mps 700 mmHg 84%
    14:00 +24°C° 0.3 mm 0 mps 700 mmHg 83%
    15:00 +24°C° 0.3 mm 0 mps 699 mmHg 83%
    16:00 +25°C° 0.3 mm 0 mps 699 mmHg 82%
    17:00 +23°C° 0 mm 0 mps 699 mmHg 85%
    18:00 +22°C° 0 mm 0 mps 699 mmHg 88%
    19:00 +21°C° 0 mm 0 mps 699 mmHg 91%
    20:00 +21°C° 0 mm 0 mps 700 mmHg 92%
    21:00 +21°C° 0 mm 0 mps 700 mmHg 92%
    22:00 +21°C° 0 mm 0 mps 700 mmHg 93%
    23:00 +20°C° 0 mm 0 mps 700 mmHg 94%

    25 September, Tuesday

    Time Temperature Precipitation Wind Pressure Humidity
    00:00 +20°C° 0 mm 0 mps 699 mmHg 95%
    01:00 +19°C° 0 mm 0 mps 699 mmHg 96%
    02:00 +19°C° 0 mm 0 mps 699 mmHg 96%
    03:00 +19°C° 0 mm 0 mps 699 mmHg 96%
    04:00 +19°C° 0 mm 0 mps 699 mmHg 96%
    05:00 +19°C° 0 mm 0 mps 700 mmHg 95%
    06:00 +20°C° 0 mm 0 mps 700 mmHg 94%
    07:00 +20°C° 0 mm 0 mps 701 mmHg 93%
    08:00 +22°C° 0 mm 0 mps 701 mmHg 83%
    09:00 +24°C° 0 mm 0 mps 701 mmHg 74%
    10:00 +27°C° 0 mm 0 mps 702 mmHg 64%
    11:00 +28°C° 0 mm 0 mps 701 mmHg 59%
    12:00 +29°C° 0 mm 0 mps 700 mmHg 54%
    13:00 +32°C° 0 mm 1 mps 699 mmHg 49%
    14:00 +32°C° 0 mm 1 mps 699 mmHg 49%
    15:00 +32°C° 0 mm 1 mps 698 mmHg 49%
    16:00 +32°C° 0 mm 1 mps 698 mmHg 49%
    17:00 +29°C° 0.1 mm 1 mps 698 mmHg 58%
    18:00 +27°C° 0.1 mm 1 mps 699 mmHg 68%
    19:00 +23°C° 0.1 mm 0 mps 699 mmHg 78%
    20:00 +22°C° 0.1 mm 0 mps 699 mmHg 81%
    21:00 +22°C° 0.1 mm 0 mps 699 mmHg 83%
    22:00 +21°C° 0.1 mm 0 mps 700 mmHg 86%
    23:00 +21°C° 0 mm 0 mps 699 mmHg 88%
    Show more